Home   Weather   Redcar   Past weeks
Flag for United Kingdom

Past Weather in Redcar, England, United Kingdom — Yesterday and Last 2 Weeks

Now
54 °F

Partly sunny.


Feels Like: 50 °F
Forecast: 62 / 45 °F
Wind: 10 mph from Northeast

Location: Tees-Side

Current Time: Jun 26, 2019 at 1:25:45 pm

Latest Report: Jun 26, 2019 at 12:50 pm


Visibility: 6 mi

Pressure: 30.48 "Hg

Humidity: 82%

Dew Point: 48 °F

Location of RedcarLocation

Past Weather in Redcar — Graph

°F

Redcar Temperature Yesterday

Maximum temperature yesterday: 55 °F (at 5:50 am)
Minimum temperature yesterday: 54 °F (at 9:20 am)
Average temperature yesterday: 55 °F

High & Low Weather Summary for the Past Weeks

 TemperatureHumidityPressure
High70 °F (Jun 22, 5:50 pm)100% (Jun 12, 1:20 pm)30.48 "Hg (Jun 12, 1:20 pm)
Low43 °F (Jun 22, 5:50 am)40% (Jun 21, 4:50 pm)29.59 "Hg (Jun 13, 6:50 am)
Average57 °F78%29.93 "Hg
* Reported Jun 11 12:20 pm — Jun 26 12:20 pm, Redcar. Weather by CustomWeather, © 2019

Note: Actual official high and low records may vary slightly from our data, if they occured in-between our weather recording intervals... More about our weather records

Advertising

Redcar Weather History for the Previous 24 Hours

Scroll right to see more
 ConditionsComfort  
Time TempWeatherWind HumidityBarometerVisibility
12:20 pm
Wed, Jun 26
54 °FPartly sunny.12 mph82%30.48 "Hg6 mi
11:50 am54 °FPartly sunny.13 mph82%30.48 "Hg6 mi
11:20 am52 °FPartly sunny.12 mph88%30.48 "Hg6 mi
10:50 am52 °FPartly sunny.12 mph88%30.48 "Hg5 mi
10:20 am52 °FPartly sunny.12 mph88%30.48 "Hg5 mi
9:50 am54 °FPartly sunny.13 mph88%30.48 "Hg6 mi
9:20 am52 °FPartly sunny.10 mph94%30.45 "Hg4 mi
8:50 am52 °FScattered showers. Broken clouds.10 mph94%30.45 "Hg4 mi
8:20 am52 °FBroken clouds.13 mph94%30.45 "Hg4 mi
7:50 am52 °FBroken clouds.9 mph94%30.42 "Hg4 mi
7:20 am52 °FBroken clouds.10 mph94%30.42 "Hg4 mi
6:50 am52 °FBroken clouds.8 mph94%30.42 "Hg5 mi
6:20 am52 °FPartly sunny.10 mph94%30.42 "Hg4 mi
5:50 am52 °FScattered clouds.9 mph94%30.42 "Hg4 mi
9:50 pm
Tue, Jun 25
54 °FPassing clouds.13 mph94%30.30 "Hg5 mi
9:20 pm54 °FPartly sunny.13 mph94%30.30 "Hg6 mi
8:50 pm54 °FPartly sunny.14 mph94%30.30 "Hg6 mi
8:20 pm54 °FPartly sunny.12 mph94%30.30 "Hg5 mi
7:50 pm54 °FPartly sunny.10 mph94%30.27 "Hg6 mi
7:20 pm54 °FPartly sunny.13 mph94%30.27 "HgN/A
6:20 pm55 °FPartly sunny.13 mph94%30.27 "HgN/A
5:50 pm55 °FPartly sunny.14 mph94%30.24 "HgN/A
5:20 pm55 °FLight rain. Broken clouds.14 mph94%30.24 "Hg6 mi
4:50 pm55 °FLight rain. More clouds than sun.14 mph94%30.24 "Hg5 mi
4:20 pm55 °FLight rain. More clouds than sun.12 mph94%30.24 "Hg4 mi
3:50 pm55 °FLight rain. More clouds than sun.10 mph94%30.21 "Hg4 mi
3:20 pm55 °FLight rain. More clouds than sun.10 mph94%30.24 "Hg4 mi
2:50 pm55 °FLight rain. Fog.13 mph94%30.21 "Hg2 mi
2:20 pm55 °FLight rain. Fog.12 mph94%30.21 "Hg2 mi
1:50 pm55 °FLight rain. Fog.13 mph94%30.21 "Hg1 mi
1:20 pm55 °FLight rain. Fog.13 mph94%30.21 "Hg1 mi
Weather by CustomWeather, © 2019

See weather overview